CJT563 CYQT-CYWG

Flight info

Callsign CJT563
Flight time N/A
Altitude 34000
Route GOVIT NORAK6
Aircraft MD11/H-SDE1E2E3FGHIJ2J3J4J5M1RWXY/LB1D1

Departure

Time 2026-04-27 00:42
Airport Thunder Bay International Airport (CYQT)

Arrival

Time N/A
Airport Winnipeg / James Armstrong Richardson International Airport (CYWG)
Time Latitude Longitude Altitude Speed Heading
2026-04-27 00:15 48.37188 -89.31499 660 ft 0 kts 348°
2026-04-27 00:31 48.37185 -89.31498 668 ft 3 kts 348°
2026-04-27 00:31 48.37160 -89.31494 658 ft 4 kts 12°
2026-04-27 00:32 48.37136 -89.31507 658 ft 4 kts 31°
2026-04-27 00:32 48.37131 -89.31512 656 ft 0 kts 32°
2026-04-27 00:34 48.37132 -89.31511 656 ft 1 kts 32°
2026-04-27 00:35 48.37159 -89.31486 659 ft 9 kts 32°
2026-04-27 00:35 48.37229 -89.31407 660 ft 16 kts 37°
2026-04-27 00:35 48.37307 -89.31339 661 ft 5 kts 349°
2026-04-27 00:35 48.37313 -89.31363 661 ft 4 kts 278°
2026-04-27 00:36 48.37301 -89.31446 659 ft 10 kts 253°
2026-04-27 00:36 48.37280 -89.31541 660 ft 9 kts 250°
2026-04-27 00:36 48.37258 -89.31630 659 ft 11 kts 250°
2026-04-27 00:36 48.37228 -89.31754 658 ft 15 kts 250°
2026-04-27 00:37 48.37192 -89.31907 659 ft 15 kts 251°
2026-04-27 00:37 48.37158 -89.32055 658 ft 14 kts 251°
2026-04-27 00:37 48.37126 -89.32190 656 ft 13 kts 248°
2026-04-27 00:37 48.37097 -89.32312 657 ft 12 kts 250°
2026-04-27 00:38 48.37070 -89.32426 655 ft 11 kts 250°
2026-04-27 00:38 48.37056 -89.32483 660 ft 0 kts 250°
2026-04-27 00:38 48.37051 -89.32507 657 ft 6 kts 250°
2026-04-27 00:39 48.37026 -89.32608 658 ft 14 kts 250°
2026-04-27 00:39 48.37045 -89.32746 659 ft 16 kts 298°
2026-04-27 00:39 48.37108 -89.32909 657 ft 19 kts 285°
2026-04-27 00:39 48.37091 -89.33089 658 ft 16 kts 254°
2026-04-27 00:40 48.37060 -89.33232 657 ft 13 kts 251°
2026-04-27 00:40 48.37039 -89.33326 656 ft 1 kts 237°
2026-04-27 00:40 48.37030 -89.33327 656 ft 1 kts 187°
2026-04-27 00:40 48.37024 -89.33316 656 ft 1 kts 133°
2026-04-27 00:41 48.37025 -89.33306 656 ft 1 kts 96°
2026-04-27 00:41 48.37029 -89.33296 656 ft 3 kts 64°
2026-04-27 00:41 48.37071 -89.33140 657 ft 44 kts 70°
2026-04-27 00:41 48.37273 -89.32282 658 ft 129 kts 70°
2026-04-27 00:42 48.37633 -89.30750 995 ft 161 kts 70°
2026-04-27 00:42 48.38003 -89.29209 2154 ft 157 kts 69°
2026-04-27 00:42 48.38380 -89.27641 2868 ft 166 kts 69°
2026-04-27 00:42 48.38780 -89.25978 3328 ft 172 kts 69°
2026-04-27 00:43 48.39191 -89.24252 3787 ft 181 kts 70°
2026-04-27 00:43 48.39667 -89.22343 3984 ft 207 kts 63°
2026-04-27 00:43 48.40679 -89.20649 4196 ft 236 kts 32°
2026-04-27 00:43 48.42293 -89.19874 4367 ft 261 kts
2026-04-27 00:44 48.44093 -89.20433 4947 ft 269 kts 331°
2026-04-27 00:44 48.45506 -89.22234 5903 ft 268 kts 303°
2026-04-27 00:44 48.46220 -89.24791 6833 ft 265 kts 275°
2026-04-27 00:44 48.46276 -89.27554 7705 ft 265 kts 265°
2026-04-27 00:45 48.46183 -89.30332 8624 ft 266 kts 264°
2026-04-27 00:45 48.46096 -89.33127 9544 ft 268 kts 265°
2026-04-27 00:45 48.46120 -89.35964 10245 ft 280 kts 269°
2026-04-27 00:45 48.46304 -89.39041 10381 ft 309 kts 274°
2026-04-27 00:46 48.46657 -89.42335 10581 ft 334 kts 277°
2026-04-27 00:46 48.47157 -89.45781 11389 ft 339 kts 279°
2026-04-27 00:46 48.47736 -89.49239 12243 ft 342 kts 281°
2026-04-27 00:46 48.48366 -89.52705 13069 ft 344 kts 282°
2026-04-27 00:47 48.49028 -89.56189 13912 ft 347 kts 282°
2026-04-27 00:47 48.49710 -89.59694 14638 ft 350 kts 282°
2026-04-27 00:47 48.50404 -89.63220 15343 ft 352 kts 283°
2026-04-27 00:47 48.51106 -89.66765 16027 ft 354 kts 283°
2026-04-27 00:48 48.51814 -89.70337 16718 ft 356 kts 283°
2026-04-27 00:48 48.52525 -89.73926 17363 ft 359 kts 283°
2026-04-27 00:48 48.53231 -89.77497 18011 ft 361 kts 283°
2026-04-27 00:48 48.53951 -89.81140 18623 ft 363 kts 283°
2026-04-27 00:49 48.54674 -89.84806 19170 ft 365 kts 282°
2026-04-27 00:49 48.55398 -89.88488 19700 ft 367 kts 282°
2026-04-27 00:49 48.56127 -89.92195 20216 ft 369 kts 282°
2026-04-27 00:49 48.56858 -89.95922 20738 ft 371 kts 282°
2026-04-27 00:50 48.57590 -89.99666 21290 ft 373 kts 282°
2026-04-27 00:50 48.59066 -90.07233 22314 ft 378 kts 282°
2026-04-27 00:50 48.59801 -90.11012 22844 ft 381 kts 282°
2026-04-27 00:51 48.60548 -90.14861 23387 ft 383 kts 282°
2026-04-27 00:51 48.61299 -90.18741 23903 ft 386 kts 282°
2026-04-27 00:51 48.62054 -90.22647 24385 ft 388 kts 282°
2026-04-27 00:51 48.62811 -90.26565 24897 ft 389 kts 282°
2026-04-27 00:52 48.63570 -90.30507 25409 ft 391 kts 282°
2026-04-27 00:52 48.64330 -90.34459 25923 ft 393 kts 282°
2026-04-27 00:52 48.65091 -90.38434 26435 ft 394 kts 282°
2026-04-27 00:52 48.65838 -90.42422 26995 ft 395 kts 282°
2026-04-27 00:53 48.66571 -90.46379 27479 ft 397 kts 282°
2026-04-27 00:53 48.67321 -90.50406 27948 ft 399 kts 282°
2026-04-27 00:53 48.68080 -90.54460 28430 ft 401 kts 282°
2026-04-27 00:53 48.68845 -90.58523 28910 ft 403 kts 282°
2026-04-27 00:54 48.69616 -90.62611 29383 ft 405 kts 282°
2026-04-27 00:54 48.70391 -90.66719 29826 ft 407 kts 282°
2026-04-27 00:54 48.71170 -90.70855 30253 ft 409 kts 282°
2026-04-27 00:54 48.71949 -90.74998 30624 ft 410 kts 282°
2026-04-27 00:55 48.72728 -90.79142 31096 ft 408 kts 282°
2026-04-27 00:55 48.73490 -90.83206 31582 ft 405 kts 282°
2026-04-27 00:55 48.74257 -90.87301 32084 ft 403 kts 282°
2026-04-27 00:55 48.75018 -90.91378 32540 ft 401 kts 281°
2026-04-27 00:56 48.75773 -90.95438 32947 ft 400 kts 281°
2026-04-27 00:56 48.76523 -90.99479 33344 ft 397 kts 281°
2026-04-27 00:56 48.77269 -91.03505 33746 ft 396 kts 281°
2026-04-27 00:56 48.78010 -91.07522 33942 ft 395 kts 281°
2026-04-27 00:57 48.78750 -91.11537 33977 ft 396 kts 281°
2026-04-27 00:57 48.80227 -91.19586 33985 ft 396 kts 281°
2026-04-27 00:58 48.81690 -91.27581 33971 ft 396 kts 280°
2026-04-27 00:58 48.83157 -91.35631 33972 ft 396 kts 280°
2026-04-27 00:59 48.84618 -91.43687 33967 ft 396 kts 280°
2026-04-27 00:59 48.86072 -91.51746 33967 ft 396 kts 280°
2026-04-27 01:00 48.87511 -91.59755 33967 ft 396 kts 279°
2026-04-27 01:00 48.88918 -91.67836 33963 ft 395 kts 279°
2026-04-27 01:01 48.90328 -91.75910 33969 ft 395 kts 279°
2026-04-27 01:01 48.91751 -91.83981 33954 ft 395 kts 279°
2026-04-27 01:02 48.93165 -91.91999 33962 ft 395 kts 279°
2026-04-27 01:02 48.94585 -92.00079 33948 ft 395 kts 279°
2026-04-27 01:03 48.96000 -92.08165 33948 ft 395 kts 279°
2026-04-27 01:03 48.97409 -92.16257 33947 ft 395 kts 279°
2026-04-27 01:04 48.98804 -92.24304 33948 ft 397 kts 279°
2026-04-27 01:04 49.00206 -92.32434 33942 ft 397 kts 279°
2026-04-27 01:05 49.01605 -92.40578 33941 ft 397 kts 279°
2026-04-27 01:05 49.02998 -92.48726 33938 ft 398 kts 278°
2026-04-27 01:06 49.04385 -92.56877 33937 ft 397 kts 278°
2026-04-27 01:06 49.05758 -92.64981 33952 ft 397 kts 278°
2026-04-27 01:07 49.07136 -92.73160 33933 ft 399 kts 278°
2026-04-27 01:07 49.08510 -92.81354 33938 ft 399 kts 278°
2026-04-27 01:08 49.09843 -92.89553 34096 ft 399 kts 278°
2026-04-27 01:08 49.11171 -92.97738 34136 ft 400 kts 278°
2026-04-27 01:09 49.12523 -93.05967 34137 ft 400 kts 278°
2026-04-27 01:09 49.13877 -93.14206 34142 ft 402 kts 277°
2026-04-27 01:10 49.15233 -93.22492 34140 ft 402 kts 277°
2026-04-27 01:10 49.16586 -93.30787 34139 ft 402 kts 277°
2026-04-27 01:11 49.17923 -93.39031 34137 ft 402 kts 277°
2026-04-27 01:11 49.19262 -93.47329 34135 ft 402 kts 277°
2026-04-27 01:12 49.20595 -93.55638 34139 ft 403 kts 277°
2026-04-27 01:12 49.21928 -93.63988 34135 ft 405 kts 277°
2026-04-27 01:13 49.23249 -93.72300 34135 ft 405 kts 277°
2026-04-27 01:13 49.24573 -93.80670 34161 ft 405 kts 277°